Location: Blandford
(50.8667°N, 2.1667°W)
Time: 13:06:48
(UTC+00:00)

Cosmos 2221 - Pass Details

Date: 09 April 2020
Orbit: 592 x 617 km, 82.5° (Epoch: 27 May)

Event Time Altitude Azimuth Distance (km) Brightness Sun altitude
Exits shadow 23:23:26 34° 321° (NW) 1,021 4.0 -30.2°
Drops below altitude 10° 23:26:31 10° 357° (N) 1,982 6.0 -30.4°
Sets 23:28:52 0° 6° (N) 2,888 7.0 -30.4°
